Theta_e
314 313 314 314 315 315 315 315 315 315 315 315 316 316 316 315 315 315 315 314 314 313 314 314 314 314 315 315 315 315 314 309 308 308 309 311 320 324 326 328 329 326 326 309 305 305 305 307 306 309 308 306 303 301 304 304 304 301 295 292 289 290 292 296 296 297 296 296 298 302 303 302 300 303 305 308 306 307 307 322 327 330 329 331 334 336 336 336
313 314 314 314 314 314 314 314 314 314 315 315 315 316 316 316 315 315 315 315 314 314 314 314 314 315 315 315 315 315 312 309 307 308 309 318 325 327 330 328 328 328 324 305 303 304 304 306 307 308 305 300 306 300 305 300 305 297 294 292 289 292 296 300 300 300 298 297 301 301 302 302 301 302 304 302 302 304 304 323 326 327 331 334 335 335 335 335
313 313 313 313 313 314 314 314 314 315 315 315 315 315 315 315 316 316 316 315 315 315 315 314 314 314 315 315 315 315 311 308 309 308 314 326 325 326 327 328 326 328 308 303 303 305 306 308 308 306 303 299 301 299 302 299 302 298 295 290 292 297 299 301 302 301 301 301 299 300 302 303 302 302 307 302 299 302 302 318 324 325 326 330 333 334 334 334
312 313 313 313 313 314 314 314 314 314 314 315 315 314 314 315 315 315 315 315 315 315 314 314 314 314 314 315 315 313 309 307 305 312 317 330 327 326 326 326 327 325 311 306 305 305 307 307 307 305 302 299 299 302 298 299 297 298 295 292 294 298 296 300 302 301 301 302 300 300 301 300 303 303 305 302 299 299 305 314 326 326 327 329 332 334 335 333
313 312 312 312 313 313 313 313 314 314 314 314 314 314 315 315 315 315 315 315 315 315 315 315 314 314 315 315 314 311 305 302 303 315 318 331 328 325 326 325 328 316 310 307 305 305 305 305 306 304 301 295 299 298 297 300 302 300 296 299 299 299 297 300 301 303 301 301 300 299 298 300 303 303 304 302 298 299 315 318 329 331 330 330 332 334 334 332
312 312 312 312 312 313 313 313 313 314 314 314 314 314 314 315 315 315 315 315 315 315 315 314 315 314 314 315 311 308 305 291 309 315 330 329 327 326 328 328 334 312 306 305 303 305 305 306 305 300 297 296 295 293 296 300 302 293 297 298 298 299 297 301 302 302 302 302 300 299 301 301 301 301 302 302 304 319 324 325 332 333 334 335 335 333 330 330
312 312 312 312 312 312 313 313 313 314 314 314 314 314 314 314 314 315 315 315 315 314 314 314 314 314 314 313 310 307 304 307 313 314 329 330 328 328 332 331 322 309 307 303 304 304 306 305 303 299 298 296 296 296 299 299 302 298 292 297 299 301 300 302 300 300 299 300 301 302 302 299 299 297 303 301 317 325 329 332 333 333 335 336 333 331 329 329
312 312 312 312 312 312 312 313 313 313 313 313 314 314 314 315 314 314 315 314 314 314 314 314 314 314 314 308 307 304 304 305 314 321 334 330 327 326 325 315 308 304 304 304 305 305 306 303 298 300 296 294 296 297 299 298 299 296 296 299 299 300 301 301 300 300 300 300 300 301 298 298 299 301 302 302 322 326 330 333 334 334 333 332 330 329 328 327
312 312 312 312 312 312 312 313 313 313 313 313 314 314 314 314 314 314 314 314 314 314 314 314 314 314 314 308 305 303 304 315 317 321 327 321 316 320 311 306 306 304 304 306 308 308 307 301 300 300 294 296 299 297 298 296 292 298 298 299 299 299 300 300 300 300 299 301 301 299 298 300 301 302 299 301 323 325 327 329 331 332 330 330 328 327 326 325
312 312 312 312 312 312 312 312 313 313 313 313 314 314 314 314 314 314 314 314 314 314 314 314 314 314 310 306 306 299 309 317 318 319 320 316 312 311 308 306 306 306 305 306 308 308 306 304 301 302 301 299 300 297 299 298 293 300 300 299 299 299 300 301 299 300 300 299 299 298 297 298 301 300 293 303 322 325 325 325 327 328 326 326 326 326 325 324
311 312 312 312 312 312 312 312 312 313 313 313 313 313 314 314 314 314 314 314 314 314 314 314 314 313 307 309 302 300 313 315 315 316 315 312 308 306 304 306 307 307 307 307 307 309 309 306 305 304 303 297 300 297 298 298 301 300 299 299 298 298 299 299 298 298 298 298 300 299 298 300 301 299 296 305 321 323 322 323 325 325 325 326 326 325 325 323
312 311 312 312 312 312 312 312 312 313 313 313 313 313 313 313 313 313 313 314 314 314 314 314 314 310 307 306 302 305 318 311 313 311 310 308 306 306 307 309 308 308 308 306 307 308 307 306 305 304 295 303 294 299 297 301 300 299 298 293 296 298 297 299 298 299 299 298 301 300 297 296 297 296 302 307 318 317 318 321 324 323 324 324 324 323 323 323
311 312 312 312 312 312 312 313 313 313 313 313 313 313 313 313 313 313 313 313 313 314 314 314 313 310 306 302 308 317 319 320 310 311 309 307 307 308 309 311 311 310 309 307 307 307 307 305 306 301 303 300 298 293 300 304 301 300 298 294 294 294 293 298 300 300 298 300 301 300 286 288 294 298 301 315 315 317 316 316 319 322 323 323 322 322 321 323
311 312 311 311 312 312 312 313 313 313 313 313 313 313 313 313 313 313 313 313 313 314 314 315 313 310 308 306 316 318 322 316 313 310 308 310 307 307 310 312 313 312 311 308 309 309 308 304 306 303 304 300 297 305 301 300 302 292 296 296 289 288 288 297 299 299 297 300 300 301 289 288 295 299 304 315 316 316 314 315 316 319 322 322 321 321 321 321
311 311 311 312 312 312 312 313 313 313 313 313 313 312 313 312 313 313 313 313 313 314 314 314 311 306 303 305 317 320 344 315 308 307 310 309 307 307 308 309 308 309 309 310 309 308 308 306 304 301 296 303 302 299 295 295 296 295 290 286 289 287 290 295 300 299 295 298 300 299 290 291 295 297 307 313 316 315 312 313 313 316 319 320 320 319 320 320
311 311 311 311 311 312 312 312 312 313 312 313 313 312 312 313 313 313 314 314 314 313 313 309 309 307 304 301 309 322 312 306 307 308 310 310 308 306 308 306 307 308 309 307 309 309 306 305 300 298 299 301 297 292 290 289 290 293 290 288 287 288 290 293 298 300 300 298 300 298 289 293 293 298 305 305 310 314 312 311 311 315 318 319 319 319 320 320
311 311 311 311 311 311 312 312 312 312 312 312 312 312 312 313 313 314 314 313 313 314 311 307 312 310 301 310 319 305 303 306 309 308 308 309 309 307 305 304 303 304 306 306 306 306 305 302 302 301 301 294 295 295 287 284 284 286 290 287 290 290 290 288 296 298 299 299 294 298 293 294 296 300 301 304 304 311 311 310 311 313 316 317 319 319 318 318
311 311 311 311 311 311 311 312 312 312 312 312 311 311 310 311 312 310 311 311 313 312 310 312 308 304 302 312 304 307 307 306 308 308 308 308 309 306 304 302 303 303 303 301 304 300 303 297 299 291 296 297 295 291 286 282 287 286 289 286 288 291 291 291 290 295 298 299 295 295 293 294 295 298 301 301 303 303 309 309 311 312 313 315 318 319 319 318
311 311 311 311 311 311 311 312 312 312 312 312 311 312 313 312 310 308 309 308 306 302 298 302 302 291 294 305 310 311 308 309 311 308 305 306 308 308 306 306 304 301 298 297 296 299 299 299 301 292 288 290 291 292 289 291 296 294 294 292 292 290 291 291 296 299 299 295 294 293 291 293 295 297 299 301 302 303 311 311 312 312 313 314 317 318 318 318
311 311 311 311 311 311 311 312 312 312 312 308 308 309 309 309 309 309 310 309 304 306 303 304 306 305 305 306 309 312 313 311 305 306 306 307 307 305 304 304 302 301 298 293 297 297 300 291 288 288 290 293 299 304 303 303 300 297 295 294 292 293 294 297 298 299 299 296 294 294 294 294 294 297 298 300 300 303 311 310 310 311 312 313 315 316 317 317
311 311 311 311 311 311 312 312 312 312 311 308 307 308 304 305 298 298 306 307 309 309 306 305 306 305 304 307 309 309 303 304 307 305 307 309 307 303 299 300 297 295 294 298 298 305 301 289 290 294 296 300 303 303 301 301 300 297 293 292 291 293 291 297 297 300 300 296 293 295 295 294 295 297 298 300 300 301 309 309 309 310 311 312 313 315 316 316
310 311 311 311 311 312 312 312 312 312 311 307 306 304 305 307 311 310 305 297 306 311 311 310 311 306 310 309 311 311 307 302 301 303 308 307 304 297 298 298 295 292 296 298 296 295 291 289 293 297 301 305 304 303 303 299 297 296 292 290 290 291 295 299 299 298 299 298 292 294 292 293 296 298 300 300 300 300 307 310 310 310 310 311 312 315 316 316
310 310 311 311 311 312 312 312 311 310 306 306 306 307 306 311 314 312 310 303 301 308 307 308 308 307 305 309 310 311 302 300 297 302 304 306 301 300 299 295 293 295 297 298 292 292 290 292 297 300 303 302 301 301 299 298 296 291 290 288 286 292 290 287 297 298 301 297 293 294 293 293 297 298 300 304 301 303 304 305 310 311 311 311 312 316 316 316
310 310 310 311 311 311 312 312 310 308 305 307 310 308 313 314 312 314 308 300 298 305 307 307 308 308 305 304 309 307 302 302 302 300 308 305 299 301 298 297 294 294 293 296 295 292 292 296 301 302 302 302 299 298 296 292 288 293 296 291 289 291 292 294 293 302 303 302 301 294 291 291 293 294 294 299 302 304 304 303 303 304 307 310 314 317 318 317
309 310 310 310 310 312 312 311 305 307 311 308 305 308 310 311 314 315 305 300 300 301 311 308 310 308 308 312 311 305 305 304 304 306 307 305 302 300 297 301 297 292 294 296 296 294 294 300 303 300 299 299 297 294 296 296 290 290 295 295 294 294 294 297 298 296 288 287 297 294 284 282 289 293 295 296 298 299 301 300 301 301 304 311 313 315 316 317
309 310 310 310 310 310 311 303 306 311 308 308 310 314 314 312 317 315 307 296 289 299 306 297 310 302 311 304 307 306 305 299 305 307 308 307 308 301 301 296 298 291 295 296 293 293 294 301 301 300 299 298 297 295 297 297 289 289 290 300 297 296 295 297 297 294 284 282 293 298 284 280 286 291 293 295 296 297 299 299 300 301 302 310 313 315 314 315
309 309 309 309 309 310 306 308 312 307 301 306 311 314 315 316 318 317 301 291 285 301 297 300 303 300 307 304 305 305 289 293 306 308 307 309 304 306 296 293 297 298 299 299 293 289 298 298 297 298 298 296 294 292 296 297 291 288 299 299 298 296 295 297 297 294 288 295 298 299 291 283 282 289 294 296 296 296 298 298 300 301 301 308 313 314 314 315
308 309 308 309 308 307 305 307 306 304 302 306 308 307 313 315 314 313 297 278 278 303 296 296 302 310 306 305 307 299 299 304 297 302 307 307 306 301 298 295 295 295 299 297 283 293 297 296 297 297 297 292 290 294 298 298 293 292 300 299 295 296 296 295 293 290 291 290 283 288 295 284 282 288 296 296 292 295 296 297 299 302 303 302 310 314 314 314
308 308 308 308 308 309 308 305 305 302 306 305 306 307 316 316 310 301 289 278 298 298 308 297 309 307 303 306 303 303 302 303 296 302 306 306 306 302 294 297 298 296 298 297 290 296 299 298 298 298 294 290 295 296 297 297 293 297 300 300 298 297 297 296 291 290 290 285 281 287 293 283 281 289 291 295 292 293 295 298 299 302 304 305 308 311 312 315
308 308 307 307 306 307 304 308 306 306 307 308 309 313 314 311 302 291 281 275 303 292 300 299 298 297 302 298 299 302 299 300 303 303 305 301 301 303 301 305 298 296 294 298 295 296 297 306 304 299 294 296 296 296 298 297 297 301 300 296 294 294 292 292 292 289 285 281 280 291 293 291 280 285 289 291 292 294 296 297 299 301 303 304 303 304 305 314
307 307 306 307 301 308 309 306 310 313 312 311 312 313 308 301 293 284 279 289 300 298 301 298 296 302 297 295 292 300 299 300 300 302 298 303 299 300 300 295 301 295 292 292 292 295 296 298 297 298 300 299 298 294 297 297 297 296 294 291 289 287 290 289 288 288 281 275 286 291 293 293 280 283 291 294 297 299 297 297 299 300 301 302 303 305 306 306
306 306 307 304 305 307 300 304 312 313 316 321 317 309 302 286 294 281 282 304 288 295 296 295 299 298 297 299 297 296 295 298 300 298 294 294 294 292 292 286 293 285 283 285 285 293 292 292 296 298 303 297 294 292 290 295 295 295 291 288 283 279 281 278 281 278 279 276 287 293 294 288 284 288 293 298 297 299 300 300 300 301 301 302 304 305 307 312
305 306 308 307 307 304 306 307 310 310 313 320 310 304 293 283 277 288 289 295 287 299 296 301 297 298 298 297 295 297 300 293 299 298 298 296 293 294 296 294 295 292 282 289 287 287 287 295 295 297 296 298 295 287 286 286 288 290 287 285 281 278 277 273 277 279 281 286 292 291 296 285 292 296 298 296 299 300 300 301 302 302 301 301 303 308 312 313
305 306 302 307 307 307 310 314 313 316 316 313 308 300 293 281 280 298 293 293 294 301 301 298 299 300 298 293 295 297 292 298 296 296 298 294 292 289 292 296 296 293 292 290 285 286 280 281 289 295 291 296 295 292 290 289 289 288 292 290 285 282 280 273 277 273 276 281 286 296 287 281 282 287 299 299 298 301 303 304 303 303 303 304 309 313 314 314
305 305 306 309 310 310 309 311 313 314 314 311 301 293 281 281 288 287 289 293 297 299 297 301 297 296 294 296 298 298 297 292 298 296 295 293 288 290 291 291 296 296 295 286 292 287 288 286 293 299 297 297 294 296 296 293 289 291 293 294 286 281 285 279 280 281 282 279 281 282 281 288 289 298 300 301 299 300 303 303 303 302 305 307 308 310 312 313
305 306 316 314 315 316 314 314 314 315 313 305 294 285 283 289 286 294 291 299 298 294 296 298 297 293 291 292 297 296 300 294 296 295 294 295 295 291 296 296 296 297 291 284 291 283 288 283 294 298 299 296 295 298 297 295 282 288 289 285 288 294 291 282 283 287 281 280 278 283 285 292 295 295 297 298 298 298 301 301 302 303 305 306 306 308 310 311
302 307 304 314 315 318 320 318 317 314 312 303 291 283 291 294 297 295 298 296 297 297 294 288 292 290 291 289 292 294 295 296 295 294 288 295 291 295 295 297 300 297 297 291 287 293 283 284 293 294 293 296 298 298 296 297 295 290 284 287 295 297 294 285 280 282 279 275 277 285 279 282 287 282 294 295 295 295 297 297 302 304 305 305 306 307 309 310
302 305 307 306 307 312 321 319 314 312 308 300 287 294 298 293 299 298 300 299 299 297 291 290 295 294 289 290 289 293 297 291 293 293 289 293 289 298 295 295 299 297 297 296 287 291 291 282 288 294 294 296 299 297 295 295 297 291 289 295 287 280 280 285 280 274 274 273 277 280 284 283 286 285 290 292 293 293 295 299 301 302 304 305 306 308 309 309
304 304 298 304 307 308 314 318 313 309 302 294 287 287 296 296 299 297 298 298 298 296 289 292 290 293 293 290 293 294 295 288 293 291 288 291 287 298 295 296 295 298 297 297 290 291 294 283 284 294 293 295 295 291 283 287 293 296 295 290 294 287 284 280 280 281 280 274 276 276 284 278 290 288 292 295 294 298 295 298 300 302 303 305 305 307 307 307
306 303 300 309 308 306 314 316 310 303 297 288 290 292 297 294 298 300 300 299 296 293 294 294 294 289 293 294 294 290 298 294 292 291 291 293 292 299 297 299 296 299 298 298 294 295 285 289 279 288 295 294 284 289 286 288 285 287 286 285 289 289 292 287 288 284 279 276 276 275 275 282 288 297 297 294 296 297 297 299 301 303 304 305 306 306 307 308
304 299 300 312 313 318 316 309 301 296 294 295 297 296 297 295 298 299 300 301 298 302 294 293 293 289 291 291 292 295 292 292 294 291 293 292 291 286 298 297 299 295 298 296 294 293 284 284 281 283 286 286 287 293 293 293 292 293 289 287 287 287 283 281 280 290 289 281 278 276 274 284 293 303 299 297 297 298 299 302 302 303 304 304 305 305 306 307
299 292 296 312 317 316 308 296 296 298 295 292 292 296 295 302 296 296 297 299 299 295 299 296 295 293 292 293 294 293 294 291 292 292 294 292 294 293 296 299 299 298 293 287 290 297 292 290 285 282 285 287 291 295 297 296 294 293 291 289 290 288 288 283 278 281 286 285 287 283 278 280 293 299 299 298 298 299 301 303 302 303 303 304 305 305 305 305
299 297 307 313 317 313 304 294 296 291 291 294 299 298 299 298 296 298 296 298 296 299 297 295 295 293 294 293 296 293 294 291 293 291 294 294 294 297 298 298 298 297 294 289 295 294 304 283 280 284 289 291 293 294 295 295 294 290 294 293 290 286 289 286 284 285 282 281 279 280 278 282 293 298 300 302 300 298 302 303 302 302 303 303 303 303 303 303
297 298 301 312 319 312 298 285 285 285 293 296 296 296 299 297 296 295 295 297 296 296 295 296 295 296 294 296 294 291 296 285 295 293 292 295 293 300 299 297 300 297 295 293 290 295 285 288 285 280 278 279 283 289 288 293 292 288 286 290 292 291 292 292 290 287 281 283 284 279 275 282 292 298 298 297 297 301 302 303 303 301 302 303 303 303 302 301
297 302 301 304 315 310 295 296 292 286 291 293 294 293 295 296 297 297 296 295 298 296 296 295 296 297 295 296 294 294 296 292 290 296 294 294 293 300 297 297 300 297 300 304 306 299 288 288 285 279 274 273 272 274 277 281 283 287 292 291 292 291 291 286 280 282 279 283 286 281 281 287 293 295 295 295 296 298 301 302 302 302 301 302 302 302 302 302
297 286 296 299 303 305 300 302 298 294 290 292 286 293 295 293 296 299 298 297 299 297 295 295 296 296 294 295 293 292 292 297 292 292 291 291 293 296 297 300 299 298 303 307 302 298 288 291 287 283 280 278 280 284 292 290 286 282 287 288 290 292 292 290 284 280 280 282 280 284 285 285 291 291 292 293 294 295 298 300 300 301 301 302 301 302 302 301
300 293 289 285 295 298 296 297 295 294 288 292 283 295 292 294 295 296 300 294 297 296 296 295 295 294 294 292 292 293 294 292 294 292 292 292 293 295 298 300 300 302 302 300 300 290 287 282 288 288 287 286 287 287 289 289 286 287 286 287 289 288 289 286 281 280 286 281 277 285 288 284 286 291 293 293 295 295 296 299 302 301 303 302 302 302 305 302
288 293 297 297 291 286 289 289 295 294 296 296 291 296 293 292 295 290 296 298 298 298 293 294 294 294 293 294 294 286 290 291 291 287 295 294 293 295 292 295 296 303 299 295 299 291 286 279 287 288 286 287 288 288 289 289 288 287 287 287 287 288 287 284 283 287 288 281 279 284 287 285 286 290 292 293 295 296 296 299 300 302 302 304 302 301 301 301
295 294 297 299 291 295 295 297 296 294 294 295 291 293 292 293 292 294 295 296 296 295 296 285 292 293 294 295 293 289 292 283 282 293 291 291 292 291 289 292 295 296 294 292 293 293 287 281 288 288 286 287 288 289 289 288 287 287 287 287 287 286 286 287 287 289 289 286 286 286 286 285 289 290 292 294 295 295 297 301 300 301 301 303 304 303 304 302
288 288 290 296 296 295 296 295 295 293 291 296 286 294 292 296 292 294 296 294 286 293 295 291 290 293 294 294 293 288 290 291 291 284 292 291 289 292 290 292 289 293 293 292 293 294 288 282 292 290 283 285 288 289 289 288 287 285 286 286 287 287 287 287 286 286 287 286 287 285 282 282 290 292 294 295 295 296 297 296 297 298 298 299 300 302 302 303
292 295 295 292 289 293 295 295 293 292 288 290 288 293 293 292 292 294 293 296 294 293 293 291 292 292 293 292 290 290 292 292 292 292 293 292 286 293 288 290 293 290 292 291 292 293 290 283 290 286 279 278 286 287 287 287 286 285 284 286 287 286 282 284 282 288 284 282 284 283 283 282 289 292 293 293 294 294 293 294 295 296 297 297 296 299 301 302
293 296 297 293 286 293 291 293 292 290 284 290 292 293 291 291 293 294 286 294 295 295 293 293 293 291 289 289 288 289 292 293 293 294 293 293 293 293 293 292 292 290 289 290 292 286 287 282 281 281 279 277 285 286 286 285 282 280 279 284 288 288 289 288 289 290 288 286 282 279 281 288 289 292 291 291 292 293 293 293 293 294 295 295 295 295 296 297
Wind_Speed
12 12 11 11 11 11 10 10 11 11 11 11 11 11 11 11 11 11 11 11 11 12 12 11 11 12 12 13 14 14 13 9 12 9 7 17 10 15 10 3 10 16 9 2 2 3 6 7 9 9 9 5 3 5 5 6 4 3 3 3 5 5 7 7 9 5 3 2 4 5 3 3 5 6 4 5 4 2 3 10 11 13 8 10 15 16 15 14
12 11 11 11 11 11 11 11 11 11 11 12 11 12 12 11 11 11 12 12 12 12 12 12 12 12 13 13 13 13 11 10 11 12 17 12 10 13 7 8 10 10 5 2 5 7 8 8 10 9 7 4 3 4 4 2 3 4 2 3 7 5 9 9 9 6 6 2 2 3 8 5 3 5 2 4 5 3 3 9 14 14 14 17 17 18 16 15
11 12 11 11 11 11 11 11 10 10 11 11 11 11 12 11 11 11 11 11 12 11 11 11 12 12 12 12 12 11 10 8 8 11 15 17 22 15 11 10 11 10 7 4 5 9 10 9 8 8 6 6 4 7 7 4 5 6 3 5 7 5 8 12 11 10 6 1 4 5 2 0 3 3 1 2 4 7 3 10 9 15 14 17 16 17 17 16
12 12 12 12 12 12 11 11 11 11 11 11 11 11 10 11 11 11 11 11 11 11 11 12 12 11 11 11 11 8 8 8 4 4 2 6 17 17 12 11 10 10 4 5 6 7 9 12 10 8 5 7 4 7 5 4 4 2 6 4 4 5 6 7 11 4 6 8 4 4 5 5 2 3 1 2 4 3 5 7 14 15 18 18 18 18 16 15
12 12 12 11 11 11 11 11 11 11 11 11 11 11 11 11 11 11 11 11 11 11 11 11 11 11 11 12 10 7 7 2 1 1 1 3 14 15 13 11 10 7 7 2 4 9 12 12 12 6 5 3 6 4 6 6 7 1 6 11 10 9 10 13 12 2 3 4 6 5 4 2 8 3 1 2 3 2 1 7 15 17 17 18 17 15 14 17
13 12 12 12 11 12 11 11 12 11 11 11 10 10 11 10 11 11 11 11 11 11 11 11 11 12 12 12 8 6 2 3 3 1 5 7 12 12 12 10 6 3 4 4 5 6 9 10 9 5 2 4 4 5 3 9 6 8 6 6 6 8 8 6 9 4 0 1 1 2 3 6 2 2 3 3 4 2 3 14 14 16 12 10 10 13 13 14
13 13 12 12 12 11 11 11 11 12 12 12 11 11 11 10 10 10 10 10 10 10 11 11 10 11 11 11 6 2 1 8 7 3 8 6 8 8 7 7 6 3 2 4 7 7 7 11 7 3 4 4 6 7 11 8 7 7 5 5 10 12 12 10 7 7 3 4 0 2 4 5 5 4 1 2 12 14 19 19 15 13 12 11 10 5 7 6
14 13 13 12 12 12 12 12 12 11 11 11 11 11 11 12 11 11 10 11 10 10 10 10 10 10 10 7 1 2 3 7 7 5 7 7 5 4 5 4 5 4 3 7 7 10 10 10 5 4 6 5 3 8 7 10 8 8 9 9 8 7 9 9 8 9 5 3 2 4 5 7 5 2 3 3 15 15 18 18 17 16 14 12 10 9 7 8
14 14 13 12 12 12 12 12 12 12 12 11 11 11 11 11 11 11 10 10 10 9 9 9 8 8 7 4 1 6 5 5 7 7 8 6 5 5 5 4 5 6 4 6 9 11 9 6 7 5 4 7 8 12 7 5 7 6 7 5 5 5 5 6 8 10 5 2 2 5 6 7 6 6 5 0 14 16 17 18 17 16 15 12 11 9 8 8
14 14 13 13 13 13 12 12 12 12 12 12 12 12 11 11 11 11 11 10 10 9 9 8 8 7 6 3 4 1 5 9 7 9 8 7 6 6 6 4 8 6 6 8 9 10 10 8 7 6 11 8 7 6 6 8 4 3 3 2 2 5 7 10 10 3 3 4 4 4 4 6 7 5 4 3 16 17 18 18 15 15 13 10 9 9 8 10
15 14 13 13 13 13 13 12 12 12 12 12 12 12 13 12 12 11 11 11 10 9 9 8 7 6 5 4 3 4 1 8 5 8 10 7 8 6 8 5 8 6 9 9 10 13 13 12 8 3 2 1 3 6 4 5 7 9 5 3 4 4 5 6 4 4 3 4 8 4 8 8 8 4 7 7 15 16 18 17 16 15 13 11 11 10 9 10
15 14 14 14 14 13 13 13 13 12 12 12 12 12 12 12 12 11 11 10 10 9 8 7 6 3 5 4 4 8 6 4 10 8 8 8 6 7 7 7 7 9 9 10 12 11 7 6 4 3 3 6 2 6 4 6 5 7 7 7 4 6 9 8 7 7 5 4 5 5 5 8 5 4 12 10 14 15 16 17 15 14 13 12 11 11 8 8
15 15 14 14 13 13 13 13 13 13 12 12 12 13 12 12 12 11 10 10 7 6 6 6 3 4 3 3 9 11 13 9 6 8 7 5 5 6 7 9 9 10 10 11 8 5 5 5 2 4 4 5 4 3 6 14 7 7 7 3 4 4 9 8 6 7 8 4 6 4 6 8 8 9 4 18 16 16 15 13 13 11 10 10 9 10 9 7
16 15 15 14 14 14 13 13 13 13 12 12 12 12 12 12 12 11 10 10 9 9 8 7 4 4 2 6 6 5 12 7 8 6 7 7 7 8 9 9 10 10 9 7 8 8 8 4 1 4 4 6 5 8 10 6 6 4 3 1 4 3 8 7 7 10 14 7 9 6 6 8 7 12 8 17 19 18 14 12 12 13 12 10 8 8 9 7
16 15 14 14 14 14 13 13 13 13 13 13 13 12 12 12 12 12 11 10 8 9 6 4 3 2 1 7 8 13 3 2 3 4 6 8 7 5 8 6 5 5 4 5 5 6 6 4 4 1 3 4 7 6 6 5 3 3 1 6 3 6 12 6 11 13 13 5 8 9 6 10 8 6 9 13 15 18 14 13 13 13 13 12 10 10 8 7
16 15 15 14 14 14 14 14 13 13 13 13 13 12 13 13 12 11 10 10 8 4 3 2 4 4 3 8 3 6 1 4 6 6 7 7 8 8 7 6 4 5 7 6 4 5 3 2 1 2 4 6 7 5 6 5 4 3 7 5 4 6 12 8 13 11 16 3 9 10 6 1 7 2 9 8 16 17 15 12 13 15 15 12 11 10 9 8
18 16 15 14 13 14 13 13 12 12 13 12 13 13 13 12 10 8 8 6 4 5 4 2 3 6 1 1 8 2 4 6 5 6 7 8 8 8 6 4 4 7 7 5 4 3 2 2 2 3 3 4 4 3 4 5 6 5 4 8 8 9 7 7 5 5 12 7 5 8 4 1 3 7 4 3 5 18 14 12 11 12 12 12 11 9 10 9
17 17 15 15 14 13 13 12 12 12 12 13 12 12 10 9 9 10 6 3 4 5 6 6 5 2 9 6 5 7 6 6 7 7 7 9 10 6 7 5 4 7 5 4 4 5 2 3 2 3 2 3 3 4 4 7 4 4 3 7 8 6 4 5 6 6 10 11 5 6 6 4 6 1 9 7 5 9 14 14 11 11 11 11 11 10 8 6
19 17 16 14 13 12 12 11 11 12 11 12 16 17 12 8 5 4 4 3 2 1 1 3 4 4 2 7 15 7 7 6 6 7 7 6 6 5 5 3 5 5 4 4 2 7 2 2 1 3 5 4 6 8 7 6 3 6 8 5 4 5 8 9 12 10 8 8 8 6 5 5 5 6 6 8 8 12 16 12 8 10 12 11 12 12 11 9
19 18 17 15 14 13 12 11 10 10 10 8 6 3 1 1 1 1 3 5 6 7 7 3 10 7 10 9 5 9 2 10 5 6 5 7 3 5 4 4 4 4 4 5 3 6 3 4 5 7 8 9 6 1 1 2 3 4 5 7 8 11 10 3 10 9 5 7 6 5 5 4 4 6 6 7 6 11 18 15 9 10 10 10 12 14 15 15
20 19 18 16 14 13 12 10 8 7 3 4 5 2 2 4 5 1 4 7 12 13 14 15 12 13 13 11 3 10 7 3 2 6 7 6 4 2 3 3 4 4 5 5 4 2 3 5 8 9 9 9 6 2 2 4 4 3 4 7 9 8 9 5 5 3 6 5 1 4 1 4 4 3 6 3 8 11 16 14 14 12 10 9 11 14 15 11
21 19 19 17 15 14 12 10 8 7 4 3 2 2 3 7 8 1 3 5 7 13 15 17 13 11 13 16 13 5 5 2 4 4 5 9 4 4 2 6 4 7 5 4 5 2 6 8 9 11 8 5 1 1 1 3 4 4 3 6 6 7 4 6 7 6 5 2 2 2 5 6 4 7 7 3 7 9 15 16 17 16 12 9 9 12 12 10
21 20 19 18 16 14 12 12 7 2 1 2 3 4 5 9 9 3 4 3 10 10 11 13 14 15 14 14 7 10 6 7 7 8 5 6 4 9 4 7 7 7 6 5 6 4 4 8 11 11 5 5 0 1 4 4 2 2 4 3 6 7 2 1 1 6 4 4 1 2 5 7 5 4 5 0 4 1 6 14 15 13 15 13 13 15 14 13
21 19 19 18 17 14 13 9 6 3 5 8 7 10 9 7 10 4 4 2 6 10 11 10 12 13 13 10 3 3 5 3 7 11 7 9 7 6 5 6 7 7 9 9 11 8 11 7 5 5 5 3 2 1 1 0 3 3 3 4 4 8 3 4 3 1 1 3 2 3 4 7 4 5 5 3 3 8 4 6 6 6 12 12 10 11 16 16
20 19 18 18 17 15 13 11 4 7 3 4 6 12 14 12 6 5 2 3 3 6 7 11 8 9 10 6 2 8 7 5 8 5 9 12 9 6 7 5 4 6 8 8 11 12 10 5 7 6 4 4 3 1 1 1 1 2 4 7 8 6 4 0 1 5 4 4 2 5 1 4 6 6 7 6 3 6 6 7 6 5 7 16 15 14 11 12
20 19 17 16 16 14 11 5 3 4 4 8 9 9 8 5 1 3 2 1 5 3 5 5 6 6 5 7 4 7 3 8 10 7 10 11 9 5 3 6 4 8 11 10 5 4 7 4 4 4 3 3 2 1 1 4 4 0 4 2 4 8 7 3 3 1 1 1 3 4 4 3 5 5 5 6 2 5 3 5 4 5 7 14 14 13 11 12
19 18 17 16 15 13 3 2 5 8 6 5 3 7 3 6 3 3 3 1 3 3 5 2 7 1 2 5 7 4 3 7 7 8 9 11 9 5 4 5 3 5 4 0 2 4 2 1 3 5 1 1 1 1 2 2 2 3 1 4 6 8 5 2 2 0 2 1 2 3 6 3 3 8 6 3 3 5 3 6 6 5 7 14 11 13 11 15
19 17 16 16 14 7 3 6 10 6 7 9 9 10 4 4 5 2 2 2 3 2 4 1 2 1 2 8 9 6 10 5 4 4 11 10 5 3 6 7 7 6 4 1 6 6 3 4 5 2 1 1 2 2 4 5 4 3 4 5 3 3 5 6 4 3 3 3 4 2 1 1 2 6 8 7 6 3 4 5 5 3 0 6 11 9 8 5
19 18 16 14 17 12 5 2 4 7 5 4 9 10 5 5 4 3 1 1 3 1 3 5 4 1 1 3 10 7 9 5 4 7 7 11 8 1 6 7 5 6 10 6 7 2 2 4 5 5 4 1 4 4 7 6 4 5 3 1 2 4 5 7 6 4 2 3 2 1 1 2 3 3 3 3 2 6 5 6 7 11 15 12 15 11 9 11
19 18 15 15 12 2 2 3 8 11 8 8 9 8 7 5 2 2 2 4 1 2 1 1 1 4 4 5 7 8 11 5 4 7 7 5 6 2 3 1 3 5 6 7 6 5 4 3 4 3 3 3 2 4 6 10 10 5 1 5 2 1 3 4 3 1 5 1 3 2 5 1 3 3 1 2 3 4 4 4 5 9 8 8 8 7 6 9
21 20 16 10 2 3 2 4 10 12 12 8 7 5 3 1 1 1 1 3 5 5 2 3 5 3 6 8 5 6 7 6 7 8 5 3 2 5 1 4 1 2 3 4 5 5 4 1 2 2 6 1 1 5 5 6 4 4 2 2 6 6 3 1 2 2 1 2 1 1 3 4 4 3 5 3 2 5 5 8 8 9 9 8 8 9 9 9
22 22 14 4 6 3 3 6 3 5 6 3 3 3 2 1 0 2 3 1 4 5 4 3 7 6 11 6 7 6 6 5 6 4 6 5 2 3 4 4 3 1 3 3 7 6 8 4 2 3 5 8 3 1 6 5 2 1 3 4 3 2 3 2 2 2 1 3 1 4 5 3 2 5 6 1 3 1 6 9 8 10 10 9 10 9 12 11
25 21 22 11 8 4 9 14 10 10 9 3 4 1 0 0 2 3 3 2 2 2 2 10 3 8 9 11 9 9 7 7 4 5 4 6 6 6 6 10 6 4 3 1 2 3 5 4 3 2 5 4 3 3 1 3 2 3 3 2 2 1 0 0 1 1 1 4 3 2 3 1 3 2 4 2 4 5 7 7 10 10 9 8 8 10 11 11
25 24 11 5 9 10 7 4 6 4 5 3 0 0 0 1 3 2 4 4 7 3 6 6 12 15 12 7 9 6 6 9 5 5 10 3 8 3 6 9 10 5 4 1 2 1 1 4 5 1 1 5 2 5 6 2 2 5 4 7 7 4 3 1 1 1 2 3 3 1 2 2 3 1 4 0 5 9 11 10 8 8 9 9 10 12 12 11
28 20 9 5 5 10 13 10 7 4 3 2 0 2 3 4 2 2 4 5 6 9 9 2 9 12 7 7 5 12 7 3 10 6 9 6 4 5 4 5 8 7 4 1 2 0 6 4 5 7 5 8 6 5 6 2 2 1 3 3 4 4 5 2 3 2 3 1 2 3 2 4 2 4 3 1 6 10 9 10 10 7 10 11 11 10 10 9
15 5 3 3 4 4 10 8 6 4 3 1 1 2 6 3 2 4 4 5 9 7 5 9 9 11 6 3 4 12 11 4 9 7 2 8 5 7 8 3 5 6 2 5 3 2 1 3 2 2 16 8 1 2 3 3 1 3 4 1 3 6 8 1 1 2 4 4 3 3 2 0 2 1 4 1 5 6 9 7 8 8 10 12 10 8 8 7
7 7 3 4 8 7 7 8 7 6 3 2 2 4 3 5 9 11 6 13 12 13 2 2 2 4 3 3 3 8 6 10 7 5 4 4 5 6 5 8 10 5 5 5 1 0 3 6 7 5 4 4 3 2 2 1 3 2 2 4 2 1 4 4 3 0 2 2 3 2 3 1 2 3 3 2 5 5 8 6 10 10 12 11 9 8 7 7
6 4 6 9 13 9 9 9 8 6 3 3 4 5 3 7 7 11 9 13 12 11 9 3 3 7 3 5 4 8 2 4 1 4 6 7 4 1 7 5 11 3 3 6 3 1 3 4 4 5 5 3 0 2 1 2 2 1 7 1 2 2 0 3 2 0 0 0 1 2 3 1 1 3 2 4 4 5 7 9 12 11 10 11 10 10 8 7
3 3 5 9 10 11 6 11 7 6 4 3 3 4 5 10 11 12 13 12 11 11 4 1 1 5 6 3 8 8 1 3 3 4 3 2 6 3 5 7 3 7 7 9 3 1 1 1 4 6 6 6 7 5 1 3 4 6 4 5 1 3 3 1 5 3 5 2 0 4 1 0 1 3 4 8 1 5 3 5 9 11 12 11 8 8 8 6
2 2 5 4 3 9 8 12 5 5 3 6 3 5 5 8 9 12 14 13 9 7 2 2 2 3 4 5 6 3 6 8 4 4 4 0 1 6 3 6 2 2 5 4 0 3 2 3 1 4 8 8 3 1 4 3 2 6 3 2 3 2 1 2 1 0 2 2 2 1 2 3 7 3 5 2 6 7 5 3 5 7 9 10 9 9 7 7
3 1 5 6 5 10 11 6 3 5 5 3 5 7 8 8 8 10 13 13 8 1 2 4 4 3 4 4 3 8 5 5 3 7 2 6 3 1 3 3 3 3 4 3 2 5 1 2 2 3 5 4 5 6 5 3 4 0 1 2 5 2 7 7 9 5 1 2 1 2 2 3 5 2 4 1 4 3 6 12 7 8 8 8 9 8 8 7
2 1 3 1 8 9 9 4 2 2 2 5 5 5 7 8 11 14 13 11 8 4 3 3 5 5 3 3 2 2 1 3 4 4 2 4 3 4 5 11 4 7 4 3 3 1 2 1 3 1 3 5 8 11 9 8 6 3 4 1 4 3 6 3 4 5 4 1 3 3 2 4 5 3 3 6 6 3 8 13 10 7 8 9 7 7 6 6
2 5 11 11 2 9 4 1 2 3 4 5 7 12 13 12 10 8 7 2 6 4 3 2 2 3 5 6 1 1 3 2 2 3 2 6 7 2 5 8 9 9 5 3 6 4 5 2 2 3 3 6 9 9 10 9 9 4 0 2 2 1 1 2 1 4 2 1 2 0 0 1 4 4 7 3 6 2 9 11 10 8 6 7 8 7 6 6
4 4 7 4 0 0 5 3 3 5 4 6 9 10 9 9 8 9 6 3 3 3 7 3 6 4 2 2 2 2 3 1 1 3 4 1 3 4 2 6 9 6 5 1 2 3 1 2 4 1 2 5 7 5 7 8 7 4 3 3 3 3 4 3 3 3 2 1 3 4 1 0 3 1 2 3 7 9 9 6 9 10 6 8 7 6 6 5
4 3 5 5 2 1 4 3 5 4 5 5 5 7 6 7 6 8 6 5 6 5 4 5 8 3 3 4 5 7 0 3 2 1 6 8 7 8 7 6 11 5 4 3 8 2 2 0 2 1 1 0 1 2 3 5 6 3 3 5 4 3 4 7 2 4 2 4 4 2 1 2 2 5 6 6 8 9 5 5 6 7 6 6 6 6 6 6
2 3 4 4 4 0 3 2 3 3 4 4 4 3 4 5 7 9 7 7 2 5 4 4 6 6 4 5 4 5 9 2 4 2 1 3 4 6 8 11 9 6 5 8 6 4 0 1 2 2 2 4 5 2 1 6 4 4 7 7 5 4 6 3 2 2 1 1 3 2 6 4 0 2 5 5 6 7 5 6 6 4 4 6 5 4 4 5
3 2 4 6 7 3 3 3 3 3 5 5 4 1 3 4 5 7 2 2 6 6 8 7 5 3 3 5 3 3 3 8 9 8 9 11 3 6 9 12 9 7 7 3 6 3 1 1 1 2 2 3 4 8 7 5 5 4 5 5 4 5 2 3 1 3 3 5 5 0 5 3 4 3 3 5 3 2 6 3 5 6 4 3 6 5 5 5
3 2 2 2 3 3 8 5 7 7 8 5 0 4 6 6 4 3 2 3 3 8 5 7 9 6 9 4 1 1 2 4 6 5 7 6 6 3 4 5 4 4 6 1 5 3 3 1 2 1 3 4 5 7 7 8 7 6 5 3 4 4 6 5 4 5 2 3 8 2 1 2 2 1 1 3 4 4 4 9 7 10 7 4 4 7 8 5
2 3 2 8 5 8 8 8 7 6 7 6 2 5 4 6 7 6 0 2 5 4 10 3 9 14 15 16 12 4 7 2 3 2 3 5 4 3 4 5 4 5 3 2 2 1 3 0 1 1 3 3 5 7 7 7 5 6 5 5 5 5 4 3 4 3 2 1 3 2 1 1 4 4 4 1 4 5 7 6 2 1 5 6 2 1 1 1
6 5 6 9 4 5 7 8 6 6 3 10 4 5 7 0 3 5 7 5 2 3 8 8 13 13 11 15 12 8 7 5 3 3 4 5 6 3 1 1 0 1 1 2 1 3 3 1 4 2 3 3 5 8 8 8 7 6 6 5 6 4 6 3 3 5 5 3 3 5 6 4 3 3 7 7 9 9 11 11 8 6 7 3 3 6 6 3
3 3 3 6 9 6 8 7 6 5 6 7 6 7 6 11 6 8 7 10 6 5 3 6 10 9 12 15 13 9 9 7 6 5 4 4 2 3 2 2 4 2 3 2 2 1 1 1 1 1 2 2 2 3 4 6 8 6 5 4 3 4 4 3 3 1 5 2 6 9 10 5 7 7 3 5 9 10 8 8 8 7 8 10 11 5 2 6
5 3 3 3 2 6 5 5 7 6 6 4 6 4 5 14 14 10 4 10 15 15 12 13 10 9 10 10 10 10 12 10 8 8 4 4 4 5 5 5 4 3 1 2 1 2 2 1 1 1 0 2 3 4 7 7 9 9 5 3 4 1 1 3 2 5 4 4 8 4 0 2 4 5 8 8 7 7 8 7 6 9 9 10 8 8 8 10
Wind_Direction
331 328 327 325 323 321 320 318 320 318 316 315 315 315 312 311 311 311 310 309 311 312 312 313 314 317 316 321 324 328 331 322 309 302 271 242 220 228 236 188 180 197 185 213 247 249 270 231 225 236 248 242 224 234 249 270 252 249 217 204 248 231 260 251 254 247 223 81 335 19 79 27 15 357 57 332 79 190 91 72 68 58 59 101 116 126 123 123
325 324 321 321 320 319 318 317 315 313 313 313 315 316 314 313 311 310 310 312 312 308 310 315 316 319 319 321 323 327 326 304 291 277 249 242 219 227 202 154 157 173 159 232 230 226 240 234 225 217 231 240 189 240 176 237 220 212 239 168 225 216 245 258 266 290 350 341 341 48 46 27 28 358 18 347 339 29 51 82 93 82 82 95 112 124 128 130
326 323 321 319 318 317 315 313 312 311 311 312 313 314 312 311 311 311 313 310 310 309 311 315 319 317 316 316 322 327 324 301 285 258 260 235 227 232 204 173 171 161 176 208 223 236 233 235 215 214 206 240 202 239 196 235 196 222 209 238 249 245 266 266 273 297 255 65 15 10 75 110 330 25 315 51 353 354 65 123 100 116 121 122 124 130 134 136
328 321 319 315 315 314 314 313 314 314 313 312 314 312 310 310 311 311 311 312 311 311 316 319 314 314 314 317 323 327 300 280 274 243 249 236 195 199 188 182 173 175 197 244 260 262 271 282 268 211 211 209 241 238 236 213 217 185 202 237 251 260 272 276 288 357 358 29 53 22 354 0 351 307 58 46 340 319 50 144 145 147 141 137 138 137 139 135
325 320 317 315 312 312 312 310 310 309 308 307 311 311 310 311 311 309 311 311 316 318 314 313 311 311 318 316 328 311 302 9 87 57 334 160 162 167 177 180 176 173 183 257 270 266 265 266 271 242 228 234 228 252 240 235 210 280 208 215 230 250 262 268 275 357 40 47 23 5 353 354 318 311 188 145 213 106 219 150 150 144 141 142 142 140 135 134
324 320 315 314 318 314 310 308 307 308 306 306 306 308 306 307 309 310 312 314 319 312 315 315 315 318 314 318 313 296 289 97 268 228 140 135 148 162 176 177 163 164 170 214 239 264 276 272 252 253 246 227 252 237 243 240 180 225 253 253 237 237 247 276 297 289 104 66 57 18 317 326 265 304 267 268 102 123 101 122 125 131 129 118 120 134 135 138
324 320 316 316 317 311 309 305 304 304 307 307 307 307 306 305 303 305 304 309 309 315 322 319 315 312 324 311 267 276 255 272 311 190 154 159 165 170 160 129 124 137 186 221 235 244 248 252 240 236 247 239 239 251 260 261 225 225 248 223 241 252 259 271 282 323 350 113 34 312 318 296 297 295 323 341 102 104 100 95 92 97 96 103 105 90 113 108
324 320 318 317 315 312 307 306 304 303 303 302 302 300 300 303 304 307 310 310 311 315 314 312 311 321 340 333 269 223 184 256 246 131 148 143 146 155 141 153 142 148 186 223 231 235 247 257 229 218 249 219 208 218 244 255 245 226 236 241 262 277 276 284 278 280 308 313 336 340 303 272 273 259 306 90 117 103 99 101 101 96 96 90 93 95 87 83
325 320 319 317 313 312 309 305 305 305 302 300 299 299 298 300 302 302 304 301 302 305 310 309 315 323 325 284 317 335 262 219 156 140 136 149 164 148 178 168 180 167 203 228 236 250 267 250 232 218 239 234 246 256 252 241 275 234 238 224 216 237 291 290 288 280 249 294 204 238 250 272 276 302 274 231 118 116 112 108 111 115 112 117 110 105 99 88
327 322 319 318 313 311 309 307 307 302 299 297 299 298 297 297 299 300 300 301 302 303 303 307 313 328 304 272 277 19 256 117 115 140 153 166 154 166 205 213 163 190 205 228 236 243 243 243 229 213 233 267 264 264 292 288 249 252 241 277 249 253 256 263 261 243 264 242 188 217 248 255 249 195 266 154 128 122 115 114 115 112 108 105 112 104 93 90
329 323 320 317 314 310 309 309 303 301 297 296 295 297 298 299 300 300 299 299 301 300 302 307 318 317 293 274 285 232 254 128 149 152 162 168 160 172 206 222 172 198 216 240 238 237 241 250 260 286 281 249 347 291 264 252 287 302 293 261 285 292 265 273 295 278 271 257 187 187 245 251 249 193 228 140 143 128 120 117 117 114 109 107 103 93 86 84
328 324 323 318 313 310 307 306 302 299 298 294 293 293 295 295 294 295 297 297 297 295 294 299 306 286 270 259 234 228 256 119 163 155 153 161 178 192 210 227 183 206 210 229 246 246 251 268 320 2 235 356 280 300 276 310 300 276 293 293 283 289 284 279 275 273 268 250 184 200 249 258 244 219 218 147 134 118 114 118 118 116 119 119 116 102 88 103
329 327 325 317 311 311 308 304 302 299 297 296 295 296 297 297 295 294 295 295 288 288 305 313 310 261 302 322 224 232 250 267 144 149 141 178 188 204 216 208 218 223 226 242 265 287 267 256 308 313 305 297 302 247 306 309 282 234 254 276 326 287 270 252 246 252 250 221 204 166 262 266 264 244 196 128 129 117 117 120 121 123 123 120 116 112 115 117
334 330 325 317 313 311 308 304 303 300 297 297 296 296 294 293 291 291 287 281 279 276 275 274 285 286 268 246 272 263 231 229 142 154 164 182 202 204 217 224 226 227 236 255 276 266 284 235 277 286 321 292 294 335 317 307 314 330 303 274 221 258 265 231 228 213 232 201 194 139 230 266 261 252 141 138 137 129 129 130 130 130 130 126 116 118 123 130
335 331 324 321 317 313 308 306 302 300 298 298 298 296 295 291 289 287 284 282 262 255 261 262 241 271 161 267 265 258 154 27 160 200 168 184 211 215 219 227 251 282 284 268 274 309 311 325 13 331 276 266 266 276 276 268 268 233 286 266 264 198 260 248 215 208 219 200 172 145 237 244 251 266 148 140 133 129 131 142 145 135 132 133 137 134 133 155
337 332 328 324 318 311 309 307 303 302 300 298 298 296 290 287 286 284 281 272 273 263 243 249 211 215 322 292 280 358 96 182 223 199 174 201 198 230 193 198 214 236 249 258 266 281 292 51 205 219 260 271 265 242 259 312 295 223 193 245 230 213 246 257 221 201 207 156 155 151 221 294 296 149 145 149 134 134 143 150 152 137 135 133 142 142 141 145
339 336 329 323 317 315 313 310 306 302 303 300 301 291 285 282 286 300 294 287 251 205 217 241 119 178 25 248 353 258 188 216 218 184 172 206 205 207 168 172 207 227 226 263 236 231 267 226 153 268 252 246 238 274 305 275 286 298 231 230 229 228 237 237 175 183 185 147 165 184 222 175 281 130 113 131 111 143 147 156 144 137 139 135 133 140 147 158
343 337 334 327 323 319 312 306 306 305 305 305 293 284 281 283 298 303 272 225 214 205 224 251 261 275 264 262 274 224 188 194 211 174 192 189 221 227 173 186 198 224 180 234 234 233 173 240 173 218 276 244 251 247 197 241 203 251 243 254 285 277 214 159 177 205 179 153 160 195 212 227 236 211 146 167 151 116 149 156 156 140 136 135 137 141 146 156
346 343 336 334 324 319 314 309 308 309 308 308 290 267 265 274 271 229 283 170 148 41 339 215 148 134 207 211 217 246 212 170 169 159 186 217 200 236 221 188 204 193 210 196 248 202 184 253 294 279 268 268 239 226 211 235 304 330 320 290 283 295 256 187 193 169 176 158 138 174 226 238 227 202 184 169 162 110 143 148 141 140 143 145 145 145 152 165
347 344 340 334 330 321 321 316 310 311 321 318 316 298 117 17 30 22 211 226 236 220 254 185 202 257 287 296 192 223 162 128 177 192 178 215 177 219 260 182 231 209 215 192 220 202 148 169 217 224 229 232 237 204 256 322 357 331 337 327 316 333 310 73 125 179 132 130 176 214 208 217 238 207 208 184 131 110 138 140 147 158 153 157 152 151 158 165
345 345 342 337 330 327 318 317 310 309 337 302 295 319 322 303 336 27 188 219 218 227 237 255 214 224 249 270 320 165 121 191 247 173 220 153 235 158 205 200 235 253 229 229 223 238 152 188 237 230 224 223 207 131 22 13 18 335 338 338 333 333 317 1 89 114 66 92 305 2 347 289 311 279 256 130 124 127 150 147 155 160 166 171 160 154 159 156
345 344 342 339 330 325 320 314 320 311 275 256 260 255 263 258 247 294 22 298 261 231 236 246 256 247 241 253 242 199 163 175 211 220 193 148 194 192 174 196 207 240 237 221 261 261 208 216 237 232 229 232 211 113 68 80 8 6 29 322 325 302 311 337 75 85 69 58 299 358 6 310 336 325 328 136 148 155 160 159 163 162 177 179 168 151 151 154
344 343 342 339 335 324 323 314 300 337 299 203 220 216 243 249 272 5 352 266 271 262 247 237 246 247 256 261 235 176 187 185 203 206 194 171 162 201 179 191 208 232 233 212 202 174 229 259 238 237 194 195 241 26 43 25 27 352 325 357 287 274 2 302 335 68 29 87 267 21 15 307 320 354 330 57 135 197 154 142 161 165 170 175 171 156 155 159
342 341 339 339 333 329 311 324 303 270 220 221 252 243 247 282 301 30 40 268 292 282 250 238 223 238 241 247 176 203 197 199 206 192 178 171 201 166 233 220 226 222 230 216 217 196 211 230 231 167 162 156 146 89 16 54 331 294 226 240 282 295 322 61 274 330 99 355 89 53 14 325 332 352 328 303 37 134 128 116 141 166 169 173 158 149 153 166
338 338 338 335 337 324 325 311 294 237 205 206 243 251 256 260 274 81 70 304 255 263 219 254 237 218 230 221 208 213 181 235 235 188 173 172 188 180 212 221 250 248 257 233 207 224 239 210 139 137 152 171 103 84 204 132 308 305 261 220 236 255 305 163 342 50 18 342 309 114 18 301 293 290 268 260 84 156 169 148 173 182 112 139 157 163 162 165
336 336 336 335 332 330 317 330 234 345 264 257 250 265 251 248 334 51 69 279 294 264 157 232 132 217 181 208 198 217 190 226 213 235 173 179 190 213 168 233 186 240 237 256 245 204 209 210 138 129 81 43 55 67 263 126 205 252 271 285 239 259 262 260 293 65 97 150 272 112 133 268 327 307 284 292 276 214 217 109 140 115 118 144 154 158 161 158
333 332 332 331 331 328 339 254 7 310 294 264 286 284 59 38 4 45 57 290 300 230 179 15 162 319 224 163 198 111 242 239 219 199 164 168 209 166 241 259 249 245 254 42 32 305 35 300 110 99 141 127 231 290 281 206 150 258 242 314 329 319 318 292 271 91 232 200 356 139 132 180 301 292 279 249 261 230 134 112 118 121 120 132 153 162 162 170
329 328 328 326 327 324 262 323 335 323 261 277 302 324 53 25 23 55 85 353 264 208 130 240 214 20 297 169 195 172 228 265 196 155 156 154 205 152 191 238 253 280 301 290 242 249 155 147 131 120 105 130 214 206 242 196 206 214 224 215 238 355 347 338 336 254 224 179 280 310 291 106 247 266 272 291 310 97 125 126 116 100 247 97 156 151 142 109
327 326 325 324 317 292 249 250 310 266 247 303 328 319 2 26 47 88 157 136 280 326 359 164 360 167 216 199 196 215 236 243 252 184 142 160 182 137 200 231 271 305 296 265 248 247 237 164 195 154 125 212 217 230 252 248 215 237 213 86 62 24 346 323 319 336 13 62 300 278 303 247 282 267 286 330 247 168 173 149 134 81 92 97 118 150 139 146
322 322 322 324 317 184 198 224 234 247 280 301 312 308 14 26 27 46 34 280 34 270 129 64 251 188 181 199 218 192 239 259 291 177 155 160 194 148 231 210 289 305 294 329 307 206 232 129 119 108 157 199 238 239 236 246 224 179 164 278 51 112 221 276 262 67 44 49 251 227 282 182 267 278 241 62 247 187 141 107 115 99 91 102 107 116 138 154
319 316 314 309 260 316 324 251 246 241 252 258 267 344 2 31 150 153 208 260 329 255 167 126 188 177 186 216 200 204 233 237 241 176 175 165 193 173 9 324 273 276 310 329 300 285 282 92 164 186 166 244 313 308 309 305 333 72 62 66 36 343 329 12 326 36 112 273 262 253 271 251 229 296 310 254 182 131 134 137 121 108 103 89 86 93 91 95
317 311 299 236 238 308 188 232 271 0 336 318 27 21 55 358 132 148 220 360 265 318 301 190 202 199 195 208 256 179 204 236 257 198 145 162 197 165 183 209 177 236 325 269 274 299 279 256 175 224 169 181 209 351 309 295 316 317 49 50 71 302 30 326 25 348 203 202 243 23 31 13 283 228 215 149 76 69 136 142 119 113 103 87 85 83 73 79
317 306 302 261 226 215 236 246 299 302 309 5 43 47 50 105 258 202 251 339 259 259 317 336 306 217 212 181 217 246 185 224 203 265 141 174 173 201 198 196 205 173 208 261 337 356 288 279 266 235 143 187 140 144 276 298 320 137 160 139 117 218 247 243 267 188 307 306 291 326 17 230 223 302 274 242 128 50 79 79 104 105 106 110 95 78 79 76
314 309 304 218 191 209 231 234 250 286 321 14 52 5 45 230 238 249 274 237 267 252 282 283 302 290 232 204 187 210 205 214 189 196 171 198 174 200 217 215 215 223 179 186 238 206 352 348 295 2 237 170 173 182 175 188 241 209 189 163 179 150 146 199 123 176 199 218 268 286 92 269 2 243 290 193 89 95 92 91 81 83 74 74 80 82 81 79
310 298 269 261 229 234 230 234 243 263 283 265 50 165 172 230 265 259 270 269 254 257 251 51 307 294 246 222 201 192 225 176 214 238 191 206 198 191 188 228 219 210 150 116 277 78 215 229 225 206 149 166 187 199 198 212 274 307 252 124 91 210 137 152 195 136 223 252 357 327 188 181 170 250 313 347 80 88 98 102 103 73 82 86 78 74 76 81
308 308 273 237 199 236 201 209 209 204 235 254 167 208 213 201 228 186 221 243 245 256 205 213 208 270 308 252 197 276 177 235 179 226 258 201 182 193 199 193 224 205 153 171 167 270 178 247 280 187 150 180 72 32 297 102 133 270 15 81 214 183 116 117 360 211 87 51 257 198 306 313 292 335 255 164 106 102 100 108 97 91 91 90 88 81 74 68
327 317 306 240 234 218 182 183 171 163 172 181 183 242 225 251 239 268 286 277 291 293 302 338 325 15 301 318 321 225 198 183 178 152 268 205 223 226 224 203 197 194 191 126 1 199 143 259 304 326 154 149 173 187 48 33 113 62 324 248 302 127 131 123 197 72 126 149 255 169 221 167 139 269 282 159 152 142 130 125 102 98 94 92 94 90 88 81
311 281 265 258 247 245 173 178 155 151 158 193 223 235 267 269 245 266 285 294 303 322 310 173 213 188 261 289 273 266 99 150 281 185 258 142 289 244 249 248 173 143 140 97 120 293 41 343 305 300 334 346 161 158 74 334 90 243 242 239 41 357 350 321 92 303 158 173 251 277 204 128 177 282 293 251 182 173 147 125 115 109 102 99 97 98 92 79
254 296 299 249 221 219 196 161 163 154 178 218 231 260 237 245 266 269 272 276 268 278 277 30 110 211 191 214 269 302 149 191 202 235 221 164 211 319 26 339 56 68 48 61 56 331 53 172 299 330 351 345 355 80 194 294 315 241 237 322 200 132 182 154 185 190 119 236 84 303 17 282 254 170 252 298 33 27 37 111 124 124 120 113 112 115 113 109
269 298 268 265 200 188 167 153 153 184 205 217 215 232 285 281 264 255 251 248 267 260 227 322 322 334 213 208 157 275 12 343 330 280 255 356 92 276 53 320 108 89 34 84 184 88 342 116 253 288 341 8 344 19 183 160 271 11 41 328 7 7 194 100 342 235 156 185 167 199 32 311 283 294 345 349 91 116 89 92 82 105 105 108 113 115 116 116
297 241 279 285 272 128 119 115 141 196 217 262 244 261 255 253 265 273 296 305 303 37 36 324 332 304 303 342 285 212 171 182 272 279 75 328 45 352 250 229 141 134 139 70 49 8 67 10 193 306 346 323 264 280 330 352 125 176 153 185 181 86 46 34 310 323 55 93 176 113 227 246 263 336 342 61 71 51 88 89 108 107 105 106 108 106 117 119
317 258 257 287 91 94 105 125 222 177 221 216 230 221 242 243 259 268 270 264 295 320 68 305 296 286 303 285 280 331 303 170 199 298 205 177 314 36 2 2 18 83 84 88 127 267 136 172 97 296 238 259 292 309 322 326 331 247 116 174 111 152 124 143 207 260 297 265 142 143 110 273 246 320 309 8 349 74 111 130 122 112 109 106 96 98 96 109
275 264 307 318 124 119 107 185 230 206 215 239 252 251 256 270 275 270 266 289 258 280 262 180 278 286 248 231 272 327 303 262 198 200 229 69 88 87 19 360 11 46 58 24 58 332 20 79 23 302 301 311 320 320 312 315 314 326 333 70 42 19 125 143 205 214 183 280 36 355 136 258 295 343 359 295 289 44 108 115 112 101 105 99 104 99 91 85
301 287 300 283 360 37 111 197 244 254 251 243 238 260 265 277 272 266 258 290 278 299 290 294 252 253 327 358 336 276 97 16 217 245 42 15 107 58 29 26 54 35 40 307 106 258 71 294 128 264 355 340 334 322 340 353 35 35 338 360 64 48 46 109 64 30 52 229 144 108 248 283 279 244 271 13 24 76 94 81 109 118 120 119 113 107 108 107
281 248 228 266 234 124 187 176 211 256 268 266 258 248 265 252 266 287 290 289 334 324 347 334 325 59 309 18 336 335 201 146 348 198 189 184 139 181 138 153 97 92 53 50 49 106 105 225 78 117 179 189 285 70 351 335 350 328 350 355 13 14 65 34 29 16 55 315 44 105 106 248 287 5 22 2 42 60 72 82 91 107 117 111 108 114 126 134
325 343 306 352 357 337 269 310 276 243 270 277 317 285 303 304 308 312 321 286 268 340 324 330 311 2 352 19 358 356 326 164 174 341 11 71 175 149 143 90 84 100 107 57 52 65 98 22 114 153 161 200 218 247 301 1 340 355 320 326 314 8 12 42 114 104 213 222 359 228 155 220 79 27 51 16 33 87 109 106 100 71 91 111 115 125 143 144
293 16 12 340 320 334 357 291 357 320 279 243 253 321 264 261 281 280 10 344 30 360 341 312 336 7 359 28 349 323 333 344 359 29 12 4 19 84 90 106 92 95 92 90 100 76 67 29 310 12 299 251 304 311 320 324 296 296 325 298 339 338 12 24 105 249 152 58 329 277 109 114 201 152 158 103 62 39 108 98 78 56 54 106 144 155 153 131
4 353 37 29 265 298 348 348 2 319 318 349 333 12 348 340 356 350 324 6 331 25 9 349 345 6 329 294 254 270 301 287 36 16 4 34 354 18 93 83 97 93 78 61 114 114 138 141 266 222 283 292 289 287 289 296 289 285 277 298 313 334 359 341 275 240 231 219 224 208 105 333 254 182 166 108 124 89 48 160 173 140 155 198 178 152 160 154
4 317 321 4 4 327 299 289 309 302 325 331 11 360 339 21 347 337 150 272 348 20 27 0 350 12 11 22 27 20 13 51 343 1 50 344 25 342 35 59 88 128 84 17 13 119 85 219 237 273 305 342 338 341 334 319 316 319 318 325 321 327 314 336 307 333 52 230 222 205 94 81 40 23 48 119 93 89 50 59 28 38 150 148 162 40 55 4
13 352 332 335 320 290 314 334 324 302 33 2 32 353 330 12 339 338 333 18 47 11 20 31 3 9 27 47 45 47 15 27 41 61 348 34 347 28 28 104 171 27 106 166 130 353 93 282 122 61 51 342 343 323 313 304 310 305 307 333 340 359 13 5 67 11 10 355 2 65 63 46 335 332 42 52 48 55 57 54 60 44 8 348 187 145 182 67
311 322 321 306 324 321 327 319 327 39 45 2 19 343 16 355 353 347 57 10 42 17 99 69 24 359 44 41 36 22 3 354 347 4 346 21 4 324 44 294 28 23 356 2 41 2 80 243 51 82 57 313 279 275 315 3 5 356 342 350 27 34 29 9 43 298 84 34 31 45 45 16 312 342 11 39 66 60 62 57 39 20 9 25 32 345 280 175
337 306 321 301 292 296 297 357 26 46 21 318 342 326 36 19 34 23 33 16 29 28 28 39 34 49 41 34 19 350 338 332 335 321 316 325 318 318 313 330 354 8 45 5 75 108 158 123 72 85 246 244 269 1 353 10 11 2 337 348 354 317 73 65 46 47 68 103 59 67 83 309 336 4 40 24 44 54 62 54 34 22 42 48 44 50 34 1